This is the latest recevied weather packets stored in our database for station/object W3TMB. If no packets are shown the sender has not sent any weather packets the latest 10 day(s).
| Time | Temp. | Humidity | Pressure | Rain* | Wind** | Luminosity | Snow |
|---|---|---|---|---|---|---|---|
| 1777406298 | 12.22° C | 79% | 1015.2 hPa | 0 mm | - | 55 W/m² | - |
| 1777405996 | 12.22° C | 79% | 1015.5 hPa | 0 mm | - | 52 W/m² | - |
| 1777405693 | 12.22° C | 79% | 1015.3 hPa | 0 mm | - | 54 W/m² | - |
| 1777405390 | 12.22° C | 79% | 1015.3 hPa | 0 mm | - | 69 W/m² | - |
| 1777405086 | 12.22° C | 79% | 1015.2 hPa | 0 mm | - | 72 W/m² | - |
| 1777404780 | 12.22° C | 79% | 1015.2 hPa | 0 mm | - | 77 W/m² | - |
| 1777404477 | 12.22° C | 79% | 1015.4 hPa | 0 mm | - | 59 W/m² | - |
| 1777404173 | 12.22° C | 79% | 1015.4 hPa | 0 mm | - | 58 W/m² | - |
| 1777403869 | 12.22° C | 79% | 1015.5 hPa | 0 mm | - | 66 W/m² | - |
| 1777403564 | 12.22° C | 78% | 1015.4 hPa | 0 mm | - | 50 W/m² | - |
| 1777403264 | 12.22° C | 79% | 1015.7 hPa | 0 mm | - | 59 W/m² | - |
| 1777402964 | 12.22° C | 78% | 1015.6 hPa | 0 mm | - | 65 W/m² | - |
| 1777402659 | 12.22° C | 78% | 1015.3 hPa | 0 mm | - | 59 W/m² | - |
| 1777402358 | 12.22° C | 78% | 1015.6 hPa | 0 mm | - | 61 W/m² | - |
| 1777402057 | 12.22° C | 78% | 1015.6 hPa | 0 mm | - | 55 W/m² | - |
| 1777401753 | 12.78° C | 78% | 1015.7 hPa | 0 mm | - | 59 W/m² | - |
| 1777401448 | 12.78° C | 78% | 1015.7 hPa | 0 mm | - | 66 W/m² | - |
| 1777401143 | 12.22° C | 78% | 1015.7 hPa | 0 mm | - | 69 W/m² | - |
| 1777400839 | 12.22° C | 78% | 1015.8 hPa | 0 mm | - | 63 W/m² | - |
| 1777400536 | 12.22° C | 78% | 1015.9 hPa | 0 mm | - | 66 W/m² | - |
| 1777400234 | 12.22° C | 77% | 1015.9 hPa | 0 mm | - | 52 W/m² | - |
| 1777399929 | 12.22° C | 77% | 1015.7 hPa | 0 mm | - | 53 W/m² | - |
| 1777399626 | 12.22° C | 77% | 1015.8 hPa | 0 mm | - | 45 W/m² | - |
| 1777399323 | 12.22° C | 77% | 1015.9 hPa | 0 mm | - | 49 W/m² | - |
| 1777399021 | 12.22° C | 76% | 1016 hPa | 0 mm | - | 48 W/m² | - |
* Rain latest hour (hover to see other rain measurements)
** Current wind speed in m/s (hover to see current wind gust speed)